Time,TemperatureF,DewpointF,PressureIn,WindDirection,WindDirectionDegrees,WindSpeedMPH,WindSpeedGustMPH,Humidity,HourlyPrecipIn,Conditions,Clouds,dailyrainin,SolarRadiationWatts/m^2,SoftwareType,DateUTC
2013-04-19 00:03:00,62.0,55.0,-100.00,WSW,237,7.0,16.0,78,0.00,,,0.00,0.000000,,2013-04-19 04:03:00,
2013-04-19 00:33:00,62.0,55.0,-100.00,SW,219,8.0,19.0,79,0.00,,,0.00,0.000000,,2013-04-19 04:33:00,
2013-04-19 00:43:00,62.0,55.0,-100.00,SW,219,8.0,19.0,79,0.00,,,0.00,0.000000,,2013-04-19 04:43:00,
2013-04-19 00:52:00,62.0,55.0,-100.00,SW,219,8.0,19.0,79,0.00,,,0.00,0.000000,,2013-04-19 04:52:00,
2013-04-19 01:03:00,62.0,55.0,-100.00,SW,219,8.0,19.0,79,0.00,,,0.00,0.000000,,2013-04-19 05:03:00,
2013-04-19 01:32:00,60.0,56.0,-100.00,SW,228,9.0,24.0,88,0.00,,,0.00,0.000000,,2013-04-19 05:32:00,
2013-04-19 01:42:00,60.0,56.0,-100.00,SW,228,9.0,24.0,88,0.00,,,0.00,0.000000,,2013-04-19 05:42:00,
2013-04-19 01:52:00,60.0,56.0,-100.00,SW,228,9.0,24.0,88,0.00,,,0.00,0.000000,,2013-04-19 05:52:00,
2013-04-19 02:02:00,60.0,56.0,-100.00,SW,228,9.0,24.0,88,0.00,,,0.00,0.000000,,2013-04-19 06:02:00,
2013-04-19 02:32:00,60.0,58.0,-100.00,SSW,204,10.0,25.0,92,0.01,,,0.01,0.000000,,2013-04-19 06:32:00,
2013-04-19 02:42:00,60.0,58.0,-100.00,SSW,204,10.0,25.0,92,0.01,,,0.01,0.000000,,2013-04-19 06:42:00,
2013-04-19 02:53:00,60.0,58.0,-100.00,SSW,204,10.0,25.0,92,0.01,,,0.01,0.000000,,2013-04-19 06:53:00,
2013-04-19 03:02:00,60.0,58.0,-100.00,SSW,204,10.0,25.0,92,0.01,,,0.01,0.000000,,2013-04-19 07:02:00,
2013-04-19 03:32:00,60.0,57.0,-100.00,SW,231,12.0,27.0,91,0.01,,,0.02,0.000000,,2013-04-19 07:32:00,
2013-04-19 03:42:00,60.0,57.0,-100.00,SW,231,12.0,27.0,91,0.01,,,0.02,0.000000,,2013-04-19 07:42:00,
2013-04-19 03:52:00,60.0,57.0,-100.00,SW,231,12.0,27.0,91,0.01,,,0.02,0.000000,,2013-04-19 07:52:00,
2013-04-19 04:02:00,60.0,57.0,-100.00,SW,231,12.0,27.0,91,0.01,,,0.02,0.000000,,2013-04-19 08:02:00,
2013-04-19 04:33:00,59.0,58.0,-100.00,SW,224,9.0,24.0,95,0.08,,,0.10,0.000000,,2013-04-19 08:33:00,
2013-04-19 04:42:00,59.0,58.0,-100.00,SW,224,9.0,24.0,95,0.08,,,0.10,0.000000,,2013-04-19 08:42:00,
2013-04-19 04:52:00,59.0,58.0,-100.00,SW,224,9.0,24.0,95,0.08,,,0.10,0.000000,,2013-04-19 08:52:00,
2013-04-19 05:01:00,59.0,58.0,-100.00,SW,224,9.0,24.0,95,0.08,,,0.10,0.000000,,2013-04-19 09:01:00,
2013-04-19 05:33:00,59.0,58.0,-100.00,SW,224,9.0,24.0,95,0.06,,,0.16,0.000000,,2013-04-19 09:33:00,
2013-04-19 05:43:00,59.0,58.0,-100.00,SW,224,9.0,24.0,95,0.06,,,0.16,0.000000,,2013-04-19 09:43:00,
2013-04-19 05:52:00,59.0,58.0,-100.00,SW,224,9.0,24.0,95,0.06,,,0.16,0.000000,,2013-04-19 09:52:00,
2013-04-19 06:02:00,59.0,58.0,-100.00,SW,224,9.0,24.0,95,0.06,,,0.16,0.000000,,2013-04-19 10:02:00,
2013-04-19 06:33:00,59.0,58.0,-100.00,SSW,213,9.0,19.0,97,0.03,,,0.19,0.000000,,2013-04-19 10:33:00,
2013-04-19 06:42:00,59.0,58.0,-100.00,SSW,213,9.0,19.0,97,0.03,,,0.19,0.000000,,2013-04-19 10:42:00,
2013-04-19 06:52:00,59.0,58.0,-100.00,SSW,213,9.0,19.0,97,0.03,,,0.19,0.000000,,2013-04-19 10:52:00,
2013-04-19 07:03:00,59.0,58.0,-100.00,SSW,213,9.0,19.0,97,0.03,,,0.19,0.000000,,2013-04-19 11:03:00,
2013-04-19 07:32:00,59.0,58.0,-100.00,SSW,209,8.0,28.0,95,0.04,,,0.23,0.000000,,2013-04-19 11:32:00,
2013-04-19 07:43:00,59.0,58.0,-100.00,SSW,209,8.0,28.0,95,0.04,,,0.23,0.000000,,2013-04-19 11:43:00,
2013-04-19 07:52:00,59.0,58.0,-100.00,SSW,209,8.0,28.0,95,0.04,,,0.23,0.000000,,2013-04-19 11:52:00,
2013-04-19 08:03:00,59.0,58.0,-100.00,SSW,209,8.0,28.0,95,0.04,,,0.23,0.000000,,2013-04-19 12:03:00,
2013-04-19 08:22:00,58.0,57.0,-100.00,SW,218,9.0,26.0,95,0.04,,,0.27,3.000000,,2013-04-19 12:22:00,
2013-04-19 08:32:00,58.0,57.0,-100.00,SW,218,9.0,26.0,95,0.04,,,0.27,3.000000,,2013-04-19 12:32:00,
2013-04-19 08:42:00,58.0,57.0,-100.00,SW,218,9.0,26.0,95,0.04,,,0.27,3.000000,,2013-04-19 12:42:00,
2013-04-19 08:53:00,58.0,57.0,-100.00,SW,218,9.0,26.0,95,0.04,,,0.27,3.000000,,2013-04-19 12:53:00,
2013-04-19 09:01:00,58.0,57.0,-100.00,SW,218,9.0,26.0,95,0.04,,,0.27,3.000000,,2013-04-19 13:01:00,
2013-04-19 09:32:00,58.0,57.0,-100.00,SW,216,8.0,30.0,95,0.07,,,0.34,11.000000,,2013-04-19 13:32:00,
2013-04-19 09:42:00,58.0,57.0,-100.00,SW,216,8.0,30.0,95,0.07,,,0.34,11.000000,,2013-04-19 13:42:00,
2013-04-19 09:52:00,58.0,57.0,-100.00,SW,216,8.0,30.0,95,0.07,,,0.34,11.000000,,2013-04-19 13:52:00,
2013-04-19 10:02:00,58.0,57.0,-100.00,SW,216,8.0,30.0,95,0.07,,,0.34,11.000000,,2013-04-19 14:02:00,
2013-04-19 10:22:00,59.0,58.0,-100.00,SW,229,9.0,22.0,95,0.10,,,0.44,32.000000,,2013-04-19 14:22:00,
2013-04-19 10:32:00,59.0,58.0,-100.00,SW,229,9.0,22.0,95,0.10,,,0.44,32.000000,,2013-04-19 14:32:00,
2013-04-19 10:43:00,59.0,58.0,-100.00,SW,229,9.0,22.0,95,0.10,,,0.44,32.000000,,2013-04-19 14:43:00,
2013-04-19 10:52:00,59.0,58.0,-100.00,SW,229,9.0,22.0,95,0.10,,,0.44,32.000000,,2013-04-19 14:52:00,
2013-04-19 11:02:00,59.0,58.0,-100.00,SW,229,9.0,22.0,95,0.10,,,0.44,32.000000,,2013-04-19 15:02:00,
2013-04-19 11:22:00,60.0,58.0,-100.00,SW,228,10.0,21.0,94,0.01,,,0.45,115.000000,,2013-04-19 15:22:00,
2013-04-19 11:33:00,60.0,58.0,-100.00,SW,228,10.0,21.0,94,0.01,,,0.45,115.000000,,2013-04-19 15:33:00,
2013-04-19 11:43:00,60.0,58.0,-100.00,SW,228,10.0,21.0,94,0.01,,,0.45,115.000000,,2013-04-19 15:43:00,
2013-04-19 11:52:00,60.0,58.0,-100.00,SW,228,10.0,21.0,94,0.01,,,0.45,115.000000,,2013-04-19 15:52:00,
2013-04-19 12:03:00,60.0,58.0,-100.00,SW,228,10.0,21.0,94,0.01,,,0.45,115.000000,,2013-04-19 16:03:00,
2013-04-19 12:33:00,60.0,59.0,-100.00,SW,226,8.0,20.0,96,0.06,,,0.51,51.000000,,2013-04-19 16:33:00,
2013-04-19 12:43:00,60.0,59.0,-100.00,SW,226,8.0,20.0,96,0.06,,,0.51,51.000000,,2013-04-19 16:43:00,
2013-04-19 12:53:00,60.0,59.0,-100.00,SW,226,8.0,20.0,96,0.06,,,0.51,51.000000,,2013-04-19 16:53:00,
2013-04-19 13:02:00,60.0,59.0,-100.00,SW,226,8.0,20.0,96,0.06,,,0.51,51.000000,,2013-04-19 17:02:00,
2013-04-19 13:33:00,61.0,59.0,-100.00,SW,232,10.0,25.0,94,0.37,,,0.88,24.000000,,2013-04-19 17:33:00,
2013-04-19 13:43:00,61.0,59.0,-100.00,SW,232,10.0,25.0,94,0.37,,,0.88,24.000000,,2013-04-19 17:43:00,
2013-04-19 13:52:00,61.0,59.0,-100.00,SW,232,10.0,25.0,94,0.37,,,0.88,24.000000,,2013-04-19 17:52:00,
2013-04-19 14:02:00,61.0,59.0,-100.00,SW,232,10.0,25.0,94,0.37,,,0.88,24.000000,,2013-04-19 18:02:00,
2013-04-19 14:33:00,61.0,60.0,-100.00,SW,221,9.0,19.0,95,0.55,,,1.43,65.000000,,2013-04-19 18:33:00,
2013-04-19 14:43:00,61.0,60.0,-100.00,SW,221,9.0,19.0,95,0.55,,,1.43,65.000000,,2013-04-19 18:43:00,
2013-04-19 14:52:00,61.0,60.0,-100.00,SW,221,9.0,19.0,95,0.55,,,1.43,65.000000,,2013-04-19 18:52:00,
2013-04-19 15:02:00,61.0,60.0,-100.00,SW,221,9.0,19.0,95,0.55,,,1.43,65.000000,,2013-04-19 19:02:00,
2013-04-19 15:32:00,60.0,58.0,-100.00,SW,224,6.0,15.0,93,0.17,,,1.60,74.000000,,2013-04-19 19:32:00,
2013-04-19 15:42:00,60.0,58.0,-100.00,SW,224,6.0,15.0,93,0.17,,,1.60,74.000000,,2013-04-19 19:42:00,
2013-04-19 15:52:00,60.0,58.0,-100.00,SW,224,6.0,15.0,93,0.17,,,1.60,74.000000,,2013-04-19 19:52:00,
2013-04-19 16:02:00,60.0,58.0,-100.00,SW,224,6.0,15.0,93,0.17,,,1.60,74.000000,,2013-04-19 20:02:00,
2013-04-19 16:32:00,59.0,58.0,-100.00,SW,228,6.0,15.0,95,0.08,,,1.68,60.000000,,2013-04-19 20:32:00,
2013-04-19 16:42:00,59.0,58.0,-100.00,SW,228,6.0,15.0,95,0.08,,,1.68,60.000000,,2013-04-19 20:42:00,
2013-04-19 16:52:00,59.0,58.0,-100.00,SW,228,6.0,15.0,95,0.08,,,1.68,60.000000,,2013-04-19 20:52:00,
2013-04-19 17:01:00,59.0,58.0,-100.00,SW,228,6.0,15.0,95,0.08,,,1.68,60.000000,,2013-04-19 21:01:00,
2013-04-19 17:32:00,59.0,56.0,-100.00,SW,227,5.0,12.0,90,0.00,,,1.68,95.000000,,2013-04-19 21:32:00,
2013-04-19 17:43:00,59.0,56.0,-100.00,SW,227,5.0,12.0,90,0.00,,,1.68,95.000000,,2013-04-19 21:43:00,
2013-04-19 17:53:00,59.0,56.0,-100.00,SW,227,5.0,12.0,90,0.00,,,1.68,95.000000,,2013-04-19 21:53:00,
2013-04-19 18:02:00,59.0,56.0,-100.00,SW,227,5.0,12.0,90,0.00,,,1.68,95.000000,,2013-04-19 22:02:00,
2013-04-19 18:33:00,57.0,46.0,-100.00,SW,227,4.0,13.0,66,0.00,,,1.68,90.000000,,2013-04-19 22:33:00,
2013-04-19 18:42:00,57.0,46.0,-100.00,SW,227,4.0,13.0,66,0.00,,,1.68,90.000000,,2013-04-19 22:42:00,
2013-04-19 18:52:00,57.0,46.0,-100.00,SW,227,4.0,13.0,66,0.00,,,1.68,90.000000,,2013-04-19 22:52:00,
2013-04-19 19:03:00,57.0,46.0,-100.00,SW,227,4.0,13.0,66,0.00,,,1.68,90.000000,,2013-04-19 23:03:00,
2013-04-19 19:32:00,56.0,37.0,-100.00,WSW,243,4.0,15.0,49,0.00,,,1.68,61.000000,,2013-04-19 23:32:00,
2013-04-19 19:42:00,56.0,37.0,-100.00,WSW,243,4.0,15.0,49,0.00,,,1.68,61.000000,,2013-04-19 23:42:00,
2013-04-19 19:53:00,56.0,37.0,-100.00,WSW,243,4.0,15.0,49,0.00,,,1.68,61.000000,,2013-04-19 23:53:00,
2013-04-19 20:02:00,56.0,37.0,-100.00,WSW,243,4.0,15.0,49,0.00,,,1.68,61.000000,,2013-04-20 00:02:00,
2013-04-19 21:32:00,48.0,22.0,-100.00,East,101,3.0,17.0,35,-99.99,,,1.68,2.000000,,2013-04-20 01:32:00,
2013-04-19 21:42:00,48.0,22.0,-100.00,East,101,3.0,17.0,35,-99.99,,,1.68,2.000000,,2013-04-20 01:42:00,
2013-04-19 21:52:00,48.0,22.0,-100.00,East,101,3.0,17.0,35,-99.99,,,1.68,2.000000,,2013-04-20 01:52:00,
2013-04-19 22:02:00,48.0,22.0,-100.00,East,101,3.0,17.0,35,-99.99,,,1.68,2.000000,,2013-04-20 02:02:00,
2013-04-19 22:32:00,45.0,35.0,-100.00,NE,41,6.0,14.0,68,0.00,,,1.68,0.000000,,2013-04-20 02:32:00,
2013-04-19 22:42:00,45.0,35.0,-100.00,NE,41,6.0,14.0,68,0.00,,,1.68,0.000000,,2013-04-20 02:42:00,
2013-04-19 22:52:00,45.0,35.0,-100.00,NE,41,6.0,14.0,68,0.00,,,1.68,0.000000,,2013-04-20 02:52:00,
2013-04-19 23:01:00,45.0,35.0,-100.00,NE,41,6.0,14.0,68,0.00,,,1.68,0.000000,,2013-04-20 03:01:00,
2013-04-19 23:33:00,42.0,35.0,-100.00,NE,55,5.0,12.0,76,0.00,,,1.68,0.000000,,2013-04-20 03:33:00,
2013-04-19 23:43:00,42.0,35.0,-100.00,NE,55,5.0,12.0,76,0.00,,,1.68,0.000000,,2013-04-20 03:43:00,
2013-04-19 23:53:00,42.0,35.0,-100.00,NE,55,5.0,12.0,76,0.00,,,1.68,0.000000,,2013-04-20 03:53:00,